Weather Roundup
Issued by NWS Chicago, IL

Home | Current Version | Previous Version | Text Only | Print | Product List | Glossary Off
Versions: 1 2 3 4 5 6 7 8 9 10 11 12 13 14 15 16 17 18 19 20 21 22 23 24 25 26 27 28 29 30 31 32 33 34 35 36 37 38 39 40 41 42 43 44 45 46 47 48 49 50

000
NZUS59 KLOT 281622
HRRLOT

CHICAGO AREA WEATHER ROUNDUP
NATIONAL WEATHER SERVICE CHICAGO/ROMEOVILLE IL
1100 AM CDT TUE JUL 28 2015

NOTE: "FAIR" INDICATES FEW OR NO CLOUDS BELOW 12,000 FEET WITH NO
SIGNIFICANT WEATHER AND/OR OBSTRUCTIONS TO VISIBILITY.

* THESE STATIONS ARE NOT UNDER NWS QUALITY CONTROL. THEY ALSO MAY NOT
  REPORT WEATHER SUCH AS PRECIPITATION OR FOG.

ILZ005-006-012>014-019>023-281700-
NORTHEAST ILLINOIS

CITY           SKY/WX    TMP DP  RH WIND       PRES   REMARKS
OHARE          PTSUNNY   84  68  58 S6        29.99R HX  87
MIDWAY         PTSUNNY   88  68  51 S8        30.00R HX  91
AURORA         MOSUNNY   83  70  64 S6        30.01R HX  87
LANSING*       PTSUNNY   84  67  55 S5        30.00R HX  87
JOLIET*        MOSUNNY   85  74  68 SE5       29.99R HX  93
WAUKEGAN       MOSUNNY   80  67  64 SE8       30.00R HX  82
DUPAGE AIRPORT MOSUNNY   85  70  60 S6        30.00R HX  89
WHEELING       MOSUNNY   85  65  51 SE7       30.01R HX  86
KANKAKEE*      MOSUNNY   84  74  73 SE3       30.00R HX  91
MORRIS*        MOSUNNY   83  73  72 SE3       29.99R HX  89
LEWIS AIRPORT* MOSUNNY   85  70  61 SE7       30.00R HX  89
NORTHERLY IS     N/A     79  68  69 NE7         N/A  HX  81
$$

WIZ051-052-058>065-066-070>072-281700-
SOUTHEAST WISCONSIN

CITY           SKY/WX    TMP DP  RH WIND       PRES   REMARKS
MILWAUKEE      PTSUNNY   83  63  50 S10       30.01R HX  84
KENOSHA*       MOSUNNY   83  65  54 S6        30.01R HX  85
RACINE*        MOSUNNY   82  65  56 SE10      30.03R HX  84
BURLINGTON     PTSUNNY   82  64  54 CALM      30.01S HX  83
WAUKESHA       SUNNY     81  63  54 SE7       30.04R HX  82
WEST BEND      PTSUNNY   82  61  47 CALM      30.03S HX  83
$$

INZ001>003-010>013-019-020-281700-
NORTHWEST INDIANA

CITY           SKY/WX    TMP DP  RH WIND       PRES   REMARKS
GARY*          MOSUNNY   86  72  62 S6        30.01R HX  92
MICHIGAN CITY* NOT AVBL
RENSSELAER*    NOT AVBL
$$

LMZ740>746-281700-
SOUTHERN LAKE MICHIGAN

STATION/POSITION TIME  SKY/WX   TEMP WIND        PRES    VSBY
                                AIR  DIR/SP/G
                 (UTC)          (F)  (DEG/KT/KT) (MB)    (MI)
HARRISON CRIB    1600            74   90/  6/  7   N/A
BURNHAM HARBOR   1600            79   60/  5/  6   N/A
CALUMET HARBOR   1500            82  130/  7/  9   N/A
BURNS HARBOR     1500            84  120/  6/ 13 1015.9S
MICHIGAN CITY    1600            82  100/  9/ 11   N/A
$$

ABBREVIATIONS USED IN REMARKS
   TC - TEMPERATURE IN CELSIUS
  WCI - WIND CHILL INDEX
   HX - HEAT INDEX
  VSB - VISIBILITY
$$



USA.gov is the U.S. government's official web portal to all federal, state and local government web resources and services.